Location: Foots Cray
(51.4000°N, 0.1167°E)
Time: 23:51:21
(UTC+00:00)

CZ-4B R/B - Pass Details

Date: 15 May 2026
Orbit: 442 x 557 km, 97.8° (Epoch: 9 June)

Event Time Altitude Azimuth Distance (km) Brightness Sun altitude
Exits shadow 20:50:42 12° 144° (SE) 1,461 4.3 -8.8°
Maximum altitude 20:53:40 47° 71° (ENE) 618 2.9 -9.1°
Drops below altitude 10° 20:57:03 10° 356° (N) 1,643 6.1 -9.5°
Sets 20:59:11 0° 351° (N) 2,545 7.3 -9.7°
